Regional Weather Roundup
Issued by NWS

Home | Current Version | Previous Version | Graphics & Text | Print | Product List | Glossary On
Versions: 1 2 3 4 5 6 7 8 9 10 11 12 13 14 15 16 17 18 19 20 21 22 23 24 25 26 27 28 29 30 31 32 33 34 35 36 37 38 39 40 41 42 43 44 45 46 47 48 49 50
000
ASUS43 KFSD 252010
RWRSD

WEATHER ROUNDUP FOR SOUTH DAKOTA
NATIONAL WEATHER SERVICE SIOUX FALLS SD
200 PM CST SUN JAN 25 2015

NOTE: "FAIR" INDICATES FEW OR NO CLOUDS BELOW 12,000 FEET WITH NO
SIGNIFICANT WEATHER AND/OR OBSTRUCTIONS TO VISIBILITY.


SDZ001>005-009-010-012>017-252100-
NORTHWEST AND NORTH CENTRAL SOUTH DAKOTA

CITY           SKY/WX    TMP DP  RH WIND       PRES   REMARKS
BUFFALO          N/A     45  27  49 SW10      29.88F
FAITH            N/A     45  25  45 VRB5      29.97F
MOBRIDGE       CLOUDY    40  30  67 NW6       29.97F
$$

SDZ012>016-024>037-041>051-057-063-072>074-252100-
SOUTHWEST AND SOUTH CENTRAL SOUTH DAKOTA

CITY           SKY/WX    TMP DP  RH WIND       PRES   REMARKS
RAPID CTY ARPT CLOUDY    47  18  31 S10       29.99F
PIERRE         PTSUNNY   41  29  62 NW12      30.01F
CUSTER         CLOUDY    39  24  55 W15G24    30.01F
ELLSWORTH AFB  CLOUDY    47  19  32 S8        29.98F
PHILIP         SUNNY     46  27  47 W12       30.01F
PINE RIDGE     MOSUNNY   49  30  48 W12       30.02F
WINNER         CLOUDY    41  30  65 W12       30.03F
$$

SDZ004>011-016>023-039-040-252100-
NORTHEAST SOUTH DAKOTA

CITY           SKY/WX    TMP DP  RH WIND       PRES   REMARKS
ABERDEEN       CLOUDY    30  25  81 CALM      30.03S
WATERTOWN      PTSUNNY   30  23  75 NW5       30.00S WCI  25
SISSETON         N/A     26  20  77 N6        30.02F WCI  19
$$

SDZ017-020-022-023-036>040-048>070-252100-
SOUTHEAST SOUTH DAKOTA

CITY           SKY/WX    TMP DP  RH WIND       PRES   REMARKS
SIOUX FALLS    CLOUDY    34  30  85 NW7       30.01S WCI  28
HURON          CLOUDY    33  29  85 NW7       30.03S WCI  27
CHAMBERLAIN    CLOUDY    37  34  87 NW12      30.03R
MITCHELL       CLOUDY    36  32  85 NW6       30.03F
YANKTON        CLOUDY    36  30  80 NW8       30.03F
$$

ABBREVIATIONS USED IN REMARKS
   TC - TEMPERATURE IN CELSIUS
  WCI - WIND CHILL INDEX
   HX - HEAT INDEX
  VSB - VISIBILITY



USA.gov is the U.S. government's official web portal to all federal, state and local government web resources and services.